• în România
  • Lista ţărilor
  • Pe 7 zile
  • Temperatura apei
  • Hartă satelitară
  • Meteo pe hartă
  • Widget-uri
  • user-avatar
    Intrare

    Meteo pe oră la Pozhega

    Astăzi, 18 Octombrie, Miercuri

    Timp Temperatura Precipitaţii Vânt Presiune Umiditate
    00:00 +14°C° 0 mm 0 m/s 748 mmHg 79%
    01:00 +14°C° 0 mm 0 m/s 748 mmHg 79%
    02:00 +14°C° 0 mm 0 m/s 748 mmHg 80%
    03:00 +14°C° 0 mm 0 m/s 747 mmHg 80%
    04:00 +14°C° 0 mm 1 m/s 747 mmHg 81%
    05:00 +14°C° 0 mm 1 m/s 747 mmHg 80%
    06:00 +14°C° 0 mm 1 m/s 747 mmHg 79%
    07:00 +14°C° 0 mm 1 m/s 747 mmHg 74%
    08:00 +18°C° 0 mm 1 m/s 747 mmHg 65%
    09:00 +20°C° 0 mm 1 m/s 746 mmHg 56%
    10:00 +22°C° 0 mm 1 m/s 746 mmHg 48%
    11:00 +23°C° 0 mm 1 m/s 746 mmHg 43%
    12:00 +25°C° 0 mm 1 m/s 746 mmHg 38%
    13:00 +26°C° 0 mm 1 m/s 745 mmHg 34%
    14:00 +25°C° 0 mm 1 m/s 745 mmHg 37%
    15:00 +24°C° 0 mm 1 m/s 745 mmHg 41%
    16:00 +23°C° 0 mm 1 m/s 744 mmHg 45%
    17:00 +22°C° 0 mm 1 m/s 744 mmHg 47%
    18:00 +20°C° 0 mm 1 m/s 744 mmHg 50%
    19:00 +18°C° 0 mm 1 m/s 744 mmHg 53%
    20:00 +18°C° 0 mm 1 m/s 745 mmHg 55%
    21:00 +16°C° 0 mm 1 m/s 745 mmHg 56%
    22:00 +15°C° 0 mm 1 m/s 745 mmHg 58%
    23:00 +15°C° 0 mm 1 m/s 745 mmHg 59%

    Mâine, 19 Octombrie, Joi

    Timp Temperatura Precipitaţii Vânt Presiune Umiditate
    00:00 +14°C° 0 mm 1 m/s 745 mmHg 61%
    01:00 +14°C° 0 mm 1 m/s 745 mmHg 62%
    02:00 +14°C° 0 mm 1 m/s 745 mmHg 63%
    03:00 +13°C° 0 mm 1 m/s 744 mmHg 63%
    04:00 +13°C° 0 mm 1 m/s 744 mmHg 64%
    05:00 +13°C° 0 mm 1 m/s 744 mmHg 64%
    06:00 +13°C° 0 mm 1 m/s 745 mmHg 63%
    07:00 +13°C° 0 mm 1 m/s 745 mmHg 63%
    08:00 +15°C° 0 mm 1 m/s 745 mmHg 56%
    09:00 +19°C° 0 mm 1 m/s 745 mmHg 48%
    10:00 +21°C° 0 mm 1 m/s 745 mmHg 41%
    11:00 +23°C° 0 mm 1 m/s 745 mmHg 38%
    12:00 +24°C° 0 mm 2 m/s 745 mmHg 35%
    13:00 +25°C° 0 mm 2 m/s 745 mmHg 32%
    14:00 +24°C° 0 mm 1 m/s 745 mmHg 37%
    15:00 +23°C° 0 mm 1 m/s 744 mmHg 41%
    16:00 +22°C° 0 mm 1 m/s 744 mmHg 45%
    17:00 +20°C° 0 mm 1 m/s 744 mmHg 49%
    18:00 +19°C° 0 mm 1 m/s 745 mmHg 53%
    19:00 +15°C° 0 mm 0 m/s 745 mmHg 57%
    20:00 +15°C° 0 mm 1 m/s 745 mmHg 58%
    21:00 +15°C° 0 mm 1 m/s 745 mmHg 59%
    22:00 +14°C° 0 mm 1 m/s 745 mmHg 60%
    23:00 +14°C° 0 mm 1 m/s 745 mmHg 62%

    Poimâine, 20 Octombrie, Vineri

    Timp Temperatura Precipitaţii Vânt Presiune Umiditate
    00:00 +14°C° 0 mm 1 m/s 745 mmHg 63%
    01:00 +13°C° 0 mm 1 m/s 745 mmHg 65%
    02:00 +13°C° 0 mm 1 m/s 745 mmHg 67%
    03:00 +13°C° 0 mm 1 m/s 745 mmHg 69%
    04:00 +12°C° 0 mm 1 m/s 745 mmHg 71%
    05:00 +12°C° 0 mm 1 m/s 745 mmHg 71%
    06:00 +12°C° 0 mm 1 m/s 746 mmHg 72%
    07:00 +12°C° 0 mm 1 m/s 746 mmHg 73%
    08:00 +15°C° 0 mm 1 m/s 746 mmHg 65%
    09:00 +18°C° 0 mm 1 m/s 746 mmHg 57%
    10:00 +21°C° 0 mm 1 m/s 747 mmHg 49%
    11:00 +20°C° 0 mm 0 m/s 746 mmHg 46%
    12:00 +21°C° 0 mm 0 m/s 746 mmHg 43%
    13:00 +22°C° 0 mm 0 m/s 746 mmHg 40%
    14:00 +21°C° 0 mm 0 m/s 746 mmHg 43%
    15:00 +21°C° 0 mm 0 m/s 746 mmHg 46%
    16:00 +20°C° 0 mm 0 m/s 745 mmHg 50%
    17:00 +18°C° 0 mm 0 m/s 746 mmHg 53%
    18:00 +16°C° 0 mm 0 m/s 746 mmHg 57%
    19:00 +15°C° 0 mm 0 m/s 746 mmHg 61%
    20:00 +14°C° 0 mm 0 m/s 747 mmHg 63%
    21:00 +14°C° 0 mm 0 m/s 747 mmHg 64%
    22:00 +14°C° 0 mm 1 m/s 747 mmHg 66%
    23:00 +14°C° 0 mm 1 m/s 747 mmHg 68%

    21 Octombrie, Sâmbătă

    Timp Temperatura Precipitaţii Vânt Presiune Umiditate
    00:00 +14°C° 0 mm 1 m/s 747 mmHg 70%
    01:00 +13°C° 0 mm 1 m/s 747 mmHg 72%
    02:00 +13°C° 0 mm 1 m/s 747 mmHg 73%
    03:00 +13°C° 0 mm 1 m/s 747 mmHg 75%
    04:00 +12°C° 0 mm 1 m/s 747 mmHg 77%
    05:00 +12°C° 0 mm 1 m/s 747 mmHg 78%
    06:00 +12°C° 0 mm 1 m/s 747 mmHg 78%
    07:00 +12°C° 0 mm 1 m/s 747 mmHg 79%
    08:00 +14°C° 0 mm 1 m/s 747 mmHg 71%
    09:00 +18°C° 0 mm 1 m/s 748 mmHg 63%
    10:00 +20°C° 0 mm 1 m/s 748 mmHg 55%
    11:00 +21°C° 0 mm 1 m/s 747 mmHg 52%
    12:00 +22°C° 0 mm 1 m/s 747 mmHg 48%
    13:00 +23°C° 0 mm 1 m/s 747 mmHg 45%
    14:00 +21°C° 0 mm 0 m/s 746 mmHg 48%
    15:00 +20°C° 0 mm 0 m/s 746 mmHg 51%
    16:00 +19°C° 0 mm 0 m/s 746 mmHg 54%
    17:00 +18°C° 0 mm 0 m/s 746 mmHg 59%
    18:00 +16°C° 0 mm 0 m/s 746 mmHg 63%
    19:00 +14°C° 0 mm 0 m/s 746 mmHg 67%
    20:00 +14°C° 0 mm 0 m/s 746 mmHg 69%
    21:00 +13°C° 0 mm 0 m/s 746 mmHg 71%
    22:00 +13°C° 0 mm 0 m/s 746 mmHg 73%
    23:00 +13°C° 0 mm 0 m/s 746 mmHg 74%

    22 Octombrie, Duminică

    Timp Temperatura Precipitaţii Vânt Presiune Umiditate
    00:00 +12°C° 0 mm 0 m/s 746 mmHg 76%
    01:00 +12°C° 0 mm 0 m/s 745 mmHg 77%
    02:00 +12°C° 0 mm 0 m/s 745 mmHg 78%
    03:00 +12°C° 0 mm 0 m/s 745 mmHg 79%
    04:00 +11°C° 0 mm 0 m/s 745 mmHg 80%
    05:00 +11°C° 0 mm 0 m/s 744 mmHg 80%
    06:00 +11°C° 0 mm 0 m/s 744 mmHg 79%
    07:00 +12°C° 0 mm 0 m/s 744 mmHg 79%
    08:00 +14°C° 0 mm 0 m/s 744 mmHg 71%
    09:00 +16°C° 0 mm 0 m/s 744 mmHg 63%
    10:00 +18°C° 0 mm 0 m/s 744 mmHg 56%
    11:00 +19°C° 0 mm 0 m/s 743 mmHg 53%
    12:00 +20°C° 0 mm 0 m/s 742 mmHg 50%
    13:00 +21°C° 0 mm 0 m/s 742 mmHg 47%
    14:00 +20°C° 0,1 mm 0 m/s 741 mmHg 51%
    15:00 +21°C° 0,1 mm 1 m/s 741 mmHg 56%
    16:00 +20°C° 0,1 mm 1 m/s 741 mmHg 61%
    17:00 +19°C° 0,6 mm 1 m/s 741 mmHg 66%
    18:00 +18°C° 0,6 mm 1 m/s 741 mmHg 71%
    19:00 +16°C° 0,6 mm 1 m/s 741 mmHg 77%
    20:00 +15°C° 2,1 mm 2 m/s 741 mmHg 81%
    21:00 +13°C° 2,1 mm 3 m/s 741 mmHg 85%
    22:00 +12°C° 2,1 mm 5 m/s 742 mmHg 89%
    23:00 +10°C° 0,8 mm 5 m/s 741 mmHg 88%

    23 Octombrie, Luni

    Timp Temperatura Precipitaţii Vânt Presiune Umiditate
    00:00 +10°C° 0,8 mm 5 m/s 741 mmHg 87%
    01:00 +9°C° 0,8 mm 5 m/s 741 mmHg 86%
    02:00 +9°C° 0,5 mm 5 m/s 741 mmHg 85%
    03:00 +8°C° 0,5 mm 5 m/s 741 mmHg 85%
    04:00 +8°C° 0,5 mm 5 m/s 741 mmHg 84%
    05:00 +8°C° 2,3 mm 5 m/s 741 mmHg 86%
    06:00 +8°C° 2,3 mm 5 m/s 741 mmHg 88%
    07:00 +7°C° 2,3 mm 4 m/s 741 mmHg 90%
    08:00 +7°C° 1,3 mm 5 m/s 741 mmHg 89%
    09:00 +7°C° 1,3 mm 5 m/s 742 mmHg 88%
    10:00 +7°C° 1,3 mm 5 m/s 742 mmHg 87%
    11:00 +8°C° 0,6 mm 5 m/s 742 mmHg 87%
    12:00 +8°C° 0,6 mm 5 m/s 742 mmHg 87%
    13:00 +8°C° 0,6 mm 5 m/s 742 mmHg 87%
    14:00 +7°C° 0,4 mm 5 m/s 742 mmHg 87%
    15:00 +7°C° 0,4 mm 5 m/s 743 mmHg 87%
    16:00 +7°C° 0,4 mm 5 m/s 743 mmHg 87%
    17:00 +7°C° 0,7 mm 5 m/s 743 mmHg 88%
    18:00 +7°C° 0,7 mm 5 m/s 743 mmHg 88%
    19:00 +7°C° 0,7 mm 5 m/s 743 mmHg 89%
    20:00 +7°C° 0,9 mm 5 m/s 743 mmHg 89%
    21:00 +7°C° 0,9 mm 5 m/s 744 mmHg 89%
    22:00 +7°C° 0,9 mm 5 m/s 744 mmHg 90%
    23:00 +7°C° 1,2 mm 5 m/s 744 mmHg 90%
    Arată mai mult